Powrót do katalogu

FENGYUN 1C DEB

LostPO
NORAD 31637·DEBRIS·🇨🇳 China

Wystrzelony May 10, 1999 z Taiyuan Satellite Launch Center

Loading…

Następne Przeloty (najbliższe 24 godziny)

TLE

NieaktualneSource: Space-Track

Epoka: Sep 23, 2022, 10:14 UTC

1 31637U 99025CAT 22266.42706648  .00003947  00000-0  14688-2 0  9992
2 31637  99.1014 129.5630 0055489  10.4028 349.8288 14.31802759795539

Śledź FENGYUN 1C DEB w czasie rzeczywistym z AllMySat

Download on the App Store